Other Public Products
Issued by NWS Grand Forks, ND

Home | Current Version | Previous Version | Text Only | Print | Product List | Glossary Off
Versions: 1 2 3 4 5 6 7 8 9 10 11 12 13 14 15 16 17 18 19 20 21 22 23 24 25 26 27 28 29 30 31 32 33 34 35 36 37 38 39 40 41 42 43 44 45 46 47 48 49 50

000
FPUS83 KFGF 251931
OPUFGF
PRAIRIE TO PINES WEATHER ROUNDUP
NATIONAL WEATHER SERVICE EASTERN NORTH DAKOTA/GRAND FORKS ND
200 PM CDT SAT OCT 25 2014

 **SATELLITE DATA USED TO AUGMENT SKY COVER AT AUTOMATED STATIONS**
 *****  WEATHER ACROSS EASTERN NORTH DAKOTA  *****

CITY           SKY/WX    TMP DP  RH WIND       PRES   REMARKS
GRAND FORKS    MOSUNNY   59  25  27 NW17G23   30.06F
GRAND FORKS AF SUNNY     59  23  24 N15G25    30.07F
GRAND CITY NWS   N/A     59 N/A N/A NW16        N/A
BUXTON         NOT AVBL
DEVILS LAKE    SUNNY     57  27  30 W13G18    30.07F
FARGO          SUNNY     60  28  29 NW15      30.09F
WAHPETON ARPT  CLEAR     59  23  25 NW13G20   30.10F
$$

 *****  WEATHER ACROSS CENTRAL AND WESTERN NORTH DAKOTA  *****

CITY           SKY/WX    TMP DP  RH WIND       PRES   REMARKS
JAMESTOWN      CLOUDY    60  30  32 NW6       30.10F
BISMARCK       SUNNY     62  31  31 SE6       30.12F
MINOT          SUNNY     58  25  28 S6        30.08F
MINOT AFB      HAZE      59  25  27 VRB3      30.07F VSB 1
GARRISON         N/A     59  31  34 VRB7      30.10F
WILLISTON      SUNNY     59  28  30 SE7       30.06F
DICKINSON      SUNNY     62  28  27 SE10      30.06F
HETTINGER      SUNNY     63  29  27 SE14      30.09F
$$

 *****  OTHER OBSERVATIONS NORTHEAST NORTH DAKOTA  *****

CITY           SKY/WX    TMP DP  RH WIND       PRES   REMARKS
WALHALLA         N/A     59  25  27 NW14G24   30.03F
LANGDON        FAIR      59  23  25 NW18G24   30.05S
CAVALIER       FAIR      59  25  27 NW18G28   30.03F
GRAFTON        FAIR      59  27  29 NW20      30.04F
CANDO          FAIR      57  25  28 NW14G20   30.08F
FORT TOTTEN      N/A     58  28  32 NW8       29.95
ROLLA          FAIR      57  19  23 W16       30.07F
RUGBY          FAIR      55  28  35 W7        30.09F
 ***** THE ABOVE OBSERVATIONS ARE NON NWS ARE NOT QUALITY
        CONTROLLED AND MAY MIS-REPORT RAIN FOR SNOW...
$$

 *****  OTHER OBSERVATIONS SOUTHEAST NORTH DAKOTA *****

CITY           SKY/WX    TMP DP  RH WIND       PRES   REMARKS
COOPERSTOWN    NOT AVBL
VALLEY CITY    FAIR      57  27  30 NW9G17    30.10F
OAKES            N/A     61  32  33 NW9       30.12F
GWINNER        CLEAR     63  32  31 NW14      30.12F
SHEYENNE NWR     N/A     61  27  27 N9        29.95
BUFFALO          N/A     59  24  26 N14         N/A
WYNDMERE         N/A     63  28  27 NW13        N/A
 ***** THE ABOVE OBSERVATIONS ARE NON NWS ARE NOT QUALITY
       CONTROLLED AND MAY MIS-REPORT RAIN FOR SNOW...
$$

  *****  WEATHER ACROSS NORTHERN MINNESOTA  *****

CITY           SKY/WX    TMP DP  RH WIND       PRES   REMARKS
FLAG ISLAND    SUNNY     52  30  43 NW24G36   29.91S
WARROAD        SUNNY     55  30  38 W21G35    29.96F
ROSEAU         SUNNY     57  28  33 CALM      29.98S
HALLOCK        SUNNY     59  21  23 NW18G26   30.02S
THF RVR FALLS  SUNNY    N/A N/A N/A NW20G29   30.02F
HALSTAD          N/A     60  27  28 NW15        N/A
FOSSTON        SUNNY     57  25  28 NW16G24   30.05S
BAUDETTE       NOT AVBL
WASKISH        SUNNY     54  36  50 W13G22    29.98S
CROOKSTON      SUNNY     57  27  30 NW21G30   30.06S
$$
  *****  WEATHER ACROSS CENTRAL AND WEST MINNESOTA  *****

CITY           SKY/WX    TMP DP  RH WIND       PRES   REMARKS
BEMIDJI        SUNNY     55  27  33 W22G28    30.00F
PARK RAPIDS    SUNNY     57  24  28 NW21G26   30.03F
WADENA         SUNNY     55  30  38 NW12G22   30.06S
DETROIT LAKES  SUNNY     55  28  35 NW16      30.09R
MOORHEAD       SUNNY     61  16  17 NW16      30.10S
FERGUS FALLS   SUNNY     57  19  23 NW17G23   30.10F
ELBOW LAKE     FAIR      57  30  35 N15       30.09F
MORRIS MN      SUNNY     61  30  31 NW16G23   30.09F
STAPLES        SUNNY     57  25  28 W14       30.05R
WHEATON        SUNNY     59  30  33 NW12G17   30.12F
$$
  *****  WEATHER ELSEWHERE ACROSS MINNESOTA  *****

CITY           SKY/WX    TMP DP  RH WIND       PRES   REMARKS
DULUTH         SUNNY     57  28  33 W18G32    29.90S
INTRNTL FALLS  SUNNY     53  29  39 W24G33    29.90S
ELY            SUNNY     54  27  35 W20G30    29.84S
CLOQUET        SUNNY     59  23  25 W16G26    29.93R
BRAINERD       SUNNY     58  22  24 NW16G30   30.02S
HIBBING        SUNNY     56  27  32 W15G28    29.92S
ALEXANDRIA     SUNNY     58  29  33 NW16G23   30.10F
SAINT CLOUD    SUNNY     65  24  21 W20G26    30.04F
MINNEAPOLIS    SUNNY     61  29  29 W17       30.04F
$$

  *****  WEATHER ACROSS SOUTH DAKOTA  *****

CITY           SKY/WX    TMP DP  RH WIND       PRES   REMARKS
SIOUX FALLS    SUNNY     66  35  31 NE6       30.12F
BROOKINGS      NOT AVBL
WATERTOWN      SUNNY     63  28  26 N12       30.12F
HURON          SUNNY     66  28  24 VRB5      30.13F
SISSETON         N/A     63  29  27 N13G18    30.11F
ABERDEEN       SUNNY     64  31  28 VRB3      30.14F
MITCHELL       SUNNY     66  31  27 E3        30.14F
PIERRE         SUNNY     65  29  25 MISG      30.11F
MOBRIDGE       SUNNY     63  29  27 S7        30.10F
RAPID CITY     SUNNY     64  33  31 S18       30.08F
$$

  *****  SOME WEATHER IN NEARBY STATES *****

CITY           SKY/WX    TMP DP  RH WIND       PRES   REMARKS
GLASGOW MT     SUNNY     61  33  35 E15       29.96F
GREAT FALLS MT PTSUNNY   55  43  63 CALM      29.82F
CHEYENNE WY    SUNNY     73  19  13 S21G26    30.19F
SCOTTSBLUFF NE SUNNY     70  39  32 E3        30.09F
OMAHA NE       MOSUNNY   73  40  30 CALM      30.09F
DES MOINES IA  SUNNY     71  37  28 NE10      30.08F
DAVENPORT IA   SUNNY     71  32  23 NW12      30.03S
CHICAGO IL     MOSUNNY   71  34  25 W15G26    29.92F
EAU CLAIRE WI  SUNNY     62  30  29 W12G24    29.97F
LA CROSSE WI   SUNNY     66  36  32 NW9       29.98F
$$

  *****  SOME NATIONAL WEATHER *****

CITY           SKY/WX    TMP DP  RH WIND       PRES   REMARKS
LA GUARDIA NY  MOSUNNY   67  40  37 SW10      29.70F
RALEIGH NC     SUNNY     69  43  38 W6        29.94F
ATLANTA GA     SUNNY     75  40  28 N9        30.03F
NEW ORLEANS LA SUNNY     76  50  40 N7        30.11F
OKLAHOMA CITY  SUNNY     88  56  33 SW6       30.06F
ALBUQUERQUE NM SUNNY     72  38  29 SW3       30.29F
SALT LAKE CITY MOSUNNY   76  30  18 S21G31    30.02F
LOS ANGELES CA PTSUNNY   73  64  73 W9        30.05F
BOISE ID       CLOUDY    66  40  38 E9        29.79F
SEATTLE WA     CLOUDY    54  51  90 NW7       29.41F
$$

*** WEATHER ACROSS MANITOBA...SASKATCHEWAN AND ONTARIO ***
                ***ONTARIO***

CITY           SKY/WX    TMP DP  RH WIND       PRES   REMARKS
GERALDTON      CLOUDY    45  36  70 NW23      29.51R
THUNDER BAY    MOSUNNY   57  30  35 W25G36    29.67S
SIOUX LOOKOUT  MOSUNNY   48  32  53 NW22G36   29.77R
TORONTO        PTSUNNY   57  50  77 W13G20    29.61F
BIG TROUT LK   CLOUDY    39  36  87 NW20G32   29.54R
PICKLE LAKE    LGT RAIN  41  32  70 W22G35    29.63R
DRYDEN         SUNNY     52  30  43 NW23G29   29.80R
KENORA         MOSUNNY   50  27  40 W18G30    29.89R
$$
                *** MANITOBA***

CITY           SKY/WX    TMP DP  RH WIND       PRES   REMARKS
BRANDON        MOSUNNY   57  27  30 W21       30.04F
DAUPHIN        SUNNY     55  28  35 W23G35    29.97F
ISLAND LAKE    CLOUDY    39  32  75 NW14G25   29.74R
PILOT MOUND      N/A     55  25  30 W15G22      N/A
THE PAS        MOSUNNY  N/A N/A N/A W18G32      N/A
THOMPSON       PTSUNNY   39  30  70 W18G29    29.74R
WINNIPEG       MOSUNNY   55  30  38 W16G25    30.00F
LYNN LAKE      CLOUDY    36  30  80 NW16G24   29.79R
CHURCHILL      LGT RAIN  36  36 100 N17       29.50R FOG
GILLAM         CLOUDY    37  34  87 W21G26    29.61R
$$
                ***SASKATCHEWAN***

CITY           SKY/WX    TMP DP  RH WIND       PRES   REMARKS
ESTEVAN        MOSUNNY   55  28  35 SW8       30.06F
KINDERSLEY     CLOUDY    46  28  49 E13       29.97F
LLOYDMINSTER   PTSUNNY   41  27  56 SW2       29.97F
PRINCE ALBERT  PTSUNNY   43  30  61 NW10      30.01
REGINA         MOSUNNY   52  34  50 SE5       30.04F



USA.gov is the U.S. government's official web portal to all federal, state and local government web resources and services.